CAPE
21 57 65 0 0 0 0 0 0 0 0 0 10 7 21 2 0 0 0 0 3 6 4 2 2 1 0 0 0 0 0 0 0 0 0 0 0 0 0 0 0 0 0
8 45 117 9 0 0 0 0 1 0 0 0 0 0 17 6 0 0 0 0 0 2 5 4 1 1 1 0 0 0 0 0 0 0 0 0 0 0 0 0 0 0 0
1 110 135 55 23 5 0 0 3 0 1 0 0 2 0 19 0 0 0 0 0 0 0 0 0 0 0 0 0 0 0 0 0 0 0 0 0 0 0 0 0 0 0
69 116 131 105 53 38 21 19 0 0 0 0 0 0 0 0 13 0 0 0 0 0 0 0 0 0 0 0 0 0 0 0 0 0 0 0 0 0 0 0 0 0 0
78 65 61 82 99 58 31 12 0 0 0 3 0 0 0 0 0 1 5 0 0 0 0 0 0 0 0 0 0 1 0 0 0 0 0 0 0 0 0 0 0 0 0
15 1 11 0 4 15 13 1 0 0 0 1 0 0 0 0 0 0 0 2 0 0 0 0 0 0 0 0 0 0 2 0 0 0 0 0 0 0 0 0 0 0 0
5 8 3 4 3 2 0 2 3 0 0 0 3 0 0 0 0 0 0 0 0 0 5 5 0 0 0 0 0 0 1 4 3 0 0 0 0 0 0 0 0 0 0
6 1 12 4 10 55 18 14 0 5 0 0 0 0 0 0 0 0 0 0 0 0 0 0 0 0 0 0 0 0 0 1 3 7 2 0 0 0 0 0 0 0 0
0 0 16 43 43 70 5 26 17 11 0 0 0 0 0 0 0 0 0 0 0 0 0 0 0 1 0 0 0 0 2 0 0 0 4 1 1 0 0 0 0 0 0
14 18 51 36 4 24 81 86 64 59 26 0 0 0 0 55 51 6 0 0 0 0 0 0 0 0 0 1 0 0 0 0 0 0 0 3 4 4 5 6 8 5 2
73 30 31 85 25 0 30 77 113 97 102 98 22 25 1 33 85 56 4 0 0 0 0 0 0 0 0 0 0 1 2 0 0 0 0 0 2 15 11 14 20 24 18
72 75 25 40 85 93 26 62 117 136 120 156 132 120 84 77 43 62 60 44 5 0 0 0 0 0 0 0 0 0 0 0 0 0 0 0 0 0 0 4 4 16 24
19 50 32 18 61 54 73 68 75 87 168 130 131 74 75 42 31 51 38 31 26 16 0 0 0 0 0 0 0 0 0 0 0 0 0 0 0 0 0 0 0 0 1
0 14 19 6 20 39 52 117 81 83 86 130 76 39 73 70 44 30 2 32 31 34 3 0 0 0 0 0 0 0 0 0 0 0 0 0 0 0 0 0 0 0 0
0 4 19 8 6 25 60 107 101 86 60 86 62 81 56 51 82 30 65 65 28 0 2 0 0 0 0 0 0 0 0 0 0 0 0 0 0 0 0 0 0 0 0
0 0 4 35 31 31 56 108 99 45 65 73 80 37 68 52 83 51 46 46 50 37 10 0 0 0 0 0 0 0 0 0 0 0 0 0 0 0 0 0 0 0 0
0 0 0 1 7 36 46 57 48 51 54 55 50 40 81 112 48 71 93 74 39 22 17 0 0 0 0 0 0 0 0 0 0 0 0 0 0 0 0 0 0 0 0
0 0 0 0 0 0 4 11 14 12 17 20 22 27 24 39 40 46 79 78 51 24 13 0 0 0 0 0 0 0 1 0 0 0 0 0 0 0 0 0 0 0 0
14 7 0 0 0 0 0 0 4 3 2 0 0 0 0 10 15 27 46 53 58 37 16 0 1 0 1 0 3 0 0 0 0 0 0 0 0 0 0 0 0 0 0
12 31 27 3 0 0 0 0 0 0 0 0 0 0 0 20 14 12 18 33 13 2 0 1 1 0 1 2 1 0 2 0 0 0 0 0 0 0 0 0 0 0 0
116 80 70 36 26 15 0 0 0 0 0 0 0 0 0 14 16 17 23 7 0 1 1 2 1 0 1 1 0 2 1 0 0 0 0 0 0 0 0 0 0 0 0
114 147 138 95 71 40 27 4 3 3 1 2 5 2 4 0 0 4 5 1 0 0 1 3 3 2 3 3 2 0 0 0 0 0 0 0 0 0 0 0 0 0 0
186 144 116 111 91 70 42 12 0 0 11 15 2 1 1 0 0 0 0 0 1 0 1 2 1 2 1 1 0 0 0 0 0 0 0 0 0 0 0 0 0 0 0
179 152 117 77 58 48 36 26 2 4 2 2 10 30 17 0 0 0 1 7 6 3 1 0 0 1 0 0 0 0 0 0 0 0 0 0 0 0 0 0 0 0 0
198 158 114 84 45 48 0 1 0 0 0 0 0 0 1 1 5 3 2 5 8 4 4 3 2 0 0 0 0 0 0 0 0 0 0 0 0 0 0 0 0 0 0
199 83 0 0 0 0 0 0 0 0 0 0 14 8 3 4 3 4 3 4 2 2 0 0 0 0 0 0 0 0 0 0 0 0 0 0 0 0 0 0 0 0 0
CIN
-13 -15 -29 -0 -0 -0 -0 -0 -0 -0 -0 -0 -6 -11 -10 -26 -0 -0 -0 -0 -0 -0 -0 -0 -0 -0 -0 -0 -0 -0 -0 -0 -0 -0 -0 -0 -0 -0 -0 -0 -0 -0 -0
-14 -4 -18 -16 -0 -0 -0 -0 -3 -0 -0 -2 -0 -1 -2 -34 -0 -0 -0 -0 -0 -3 -0 -0 -0 -0 -0 -0 -0 -0 -0 -0 -0 -0 -0 -0 -0 -0 -0 -0 -0 -0 -0
-25 -19 -23 -36 -48 -87 -0 -0 -5 -0 -4 -0 -0 -3 -0 -5 -0 -0 -0 -0 -0 -0 -0 -1 -0 -0 -0 -0 -0 -0 -0 -0 -0 -0 -0 -0 -0 -0 -0 -0 -0 -0 -0
-4 -28 -13 -14 -20 -11 -14 -16 -1 -0 -1 -0 -0 -0 -0 -0 -5 -0 -0 -0 -0 -0 -0 -0 -0 -0 -0 -0 -0 -0 -0 -0 -0 -0 -0 -0 -0 -0 -0 -0 -0 -0 -0
-14 -13 -26 -20 -13 -13 -10 -34 -0 -0 -0 -4 -0 -0 -0 -0 -0 -1 -20 -0 -0 -0 -0 -0 -0 -0 -0 -0 -0 -0 -0 -0 -0 -0 -0 -0 -0 -0 -0 -0 -0 -0 -0
-16 -11 -28 -2 -9 -15 -16 -4 -0 -0 -0 -3 -0 -0 -0 -0 -0 -0 -0 -2 -0 -0 -0 -0 -0 -0 -0 -0 -0 -0 -0 -0 -0 -0 -0 -0 -0 -0 -0 -0 -0 -0 -0
-32 -51 -42 -43 -70 -56 -0 -59 -47 -0 -0 -0 -6 -0 -0 -0 -0 -0 -0 -0 -0 -0 -18 -203 -0 -0 -0 -0 -0 -0 -1 -1 -0 -0 -0 -0 -0 -0 -0 -0 -0 -0 -0
-30 -37 -25 -38 -22 -14 -17 -40 -13 -60 -0 -0 -0 -0 -0 -0 -0 -0 -0 -0 -0 -0 -0 -0 -6 -0 -0 -0 -0 -0 -6 -1 -1 -0 -1 -0 -0 -0 -0 -0 -0 -0 -0
-7 -12 -22 -37 -46 -22 -21 -19 -39 -63 -0 -0 -0 -0 -0 -0 -0 -0 -0 -0 -0 -0 -0 -0 -0 -6 -3 -0 -0 -0 -59 -0 -0 -0 -1 -2 -6 -0 -0 -0 -0 -0 -0
-23 -14 -19 -42 -25 -56 -15 -6 -29 -24 -45 -0 -0 -0 -3 -40 -13 -12 -0 -0 -0 -0 -0 -0 -0 -0 -0 -71 -0 -0 -0 -0 -0 -0 -0 -0 -1 -1 -0 -2 -0 -0 -1
-12 -27 -27 -38 -58 -9 -41 -8 -19 -29 -17 -9 -45 -59 -3 -58 -35 -19 -6 -0 -0 -0 -0 -0 -0 -0 -0 -0 -0 -49 -29 -0 -0 -0 -0 -0 -0 -0 -1 -2 -0 -1 -1
-15 -46 -53 -41 -16 -34 -38 -8 -11 -25 -31 -18 -10 -7 -32 -30 -35 -28 -20 -12 -4 -0 -0 -0 -0 -0 -0 -0 -0 -0 -0 -0 -0 -0 -0 -0 -0 -0 -0 -0 -0 -1 -0
-17 -48 -46 -43 -18 -24 -13 -13 -15 -22 -31 -31 -25 -20 -19 -32 -45 -29 -21 -25 -19 -27 -0 -0 -0 -0 -0 -0 -0 -0 -0 -0 -0 -0 -0 -0 -0 -0 -0 -0 -0 -0 -0
-0 -18 -36 -56 -47 -6 -11 -40 -22 -30 -36 -36 -35 -19 -18 -30 -39 -36 -13 -16 -12 -18 -14 -0 -0 -0 -0 -0 -0 -0 -0 -0 -0 -0 -0 -0 -0 -0 -0 -0 -0 -0 -0
-0 -9 -16 -43 -62 -25 -4 -10 -26 -34 -36 -36 -40 -45 -35 -32 -37 -31 -21 -15 -8 -1 -8 -0 -0 -0 -0 -0 -0 -0 -0 -0 -0 -0 -0 -0 -0 -0 -0 -0 -0 -0 -0
-0 -0 -27 -31 -29 -13 -7 -5 -24 -36 -36 -34 -28 -25 -33 -31 -26 -26 -23 -18 -12 -12 -10 -0 -0 -0 -0 -0 -0 -0 -0 -0 -0 -0 -0 -0 -0 -0 -0 -0 -0 -0 -0
-0 -0 -0 -18 -27 -9 -4 -7 -19 -26 -38 -28 -28 -32 -14 -13 -21 -16 -13 -15 -22 -30 -11 -0 -0 -0 -0 -0 -0 -0 -0 -0 -0 -0 -0 -0 -0 -0 -0 -0 -0 -0 -0
-0 -0 -0 -0 -0 -0 -30 -21 -16 -22 -24 -41 -39 -25 -21 -13 -8 -9 -9 -9 -25 -63 -38 -0 -0 -0 -0 -0 -0 -0 -0 -0 -0 -0 -0 -0 -0 -0 -0 -0 -0 -0 -0
-288 -305 -0 -0 -0 -0 -0 -0 -21 -20 -19 -0 -0 -0 -0 -23 -18 -18 -15 -16 -11 -40 -52 -0 -0 -0 -0 -0 -0 -0 -0 -0 -0 -0 -0 -0 -0 -0 -0 -0 -0 -0 -0
-316 -255 -241 -129 -0 -0 -1 -0 -0 -0 -0 -0 -0 -0 -0 -49 -53 -40 -21 -19 -5 -13 -0 -0 -0 -0 -0 -0 -0 -0 -0 -0 -0 -0 -0 -0 -0 -0 -0 -0 -0 -0 -0
-194 -198 -184 -228 -207 -206 -0 -0 -0 -0 -0 -0 -0 -0 -0 -59 -57 -25 -61 -29 -4 -0 -0 -0 -0 -0 -0 -0 -0 -0 -0 -0 -0 -0 -0 -0 -0 -0 -0 -0 -0 -0 -0
-224 -159 -176 -188 -184 -228 -284 -299 -195 -161 -5 -7 -127 -24 -8 -0 -0 -57 -40 -52 -0 -27 -0 -0 -0 -0 -0 -0 -0 -0 -0 -0 -0 -0 -0 -0 -0 -0 -0 -0 -0 -0 -0
-213 -231 -203 -182 -206 -211 -257 -276 -0 -19 -140 -140 -8 -8 -15 -0 -0 -0 -0 -0 -0 -0 -0 -0 -0 -0 -0 -0 -0 -0 -0 -0 -0 -0 -0 -0 -0 -0 -0 -0 -0 -0 -0
-251 -242 -243 -249 -221 -248 -244 -284 -167 -146 -11 -12 -12 -56 -7 -0 -0 -0 -0 -0 -0 -0 -0 -0 -0 -0 -0 -0 -0 -0 -0 -0 -0 -0 -0 -0 -0 -0 -0 -0 -0 -0 -0
-240 -260 -240 -219 -227 -230 -0 -59 -8 -5 -0 -0 -0 -0 -0 -0 -0 -0 -0 -0 -0 -0 -0 -0 -0 -0 -0 -0 -0 -0 -0 -0 -0 -0 -0 -0 -0 -0 -0 -0 -0 -0 -0
-159 -173 -0 -0 -0 -0 -0 -0 -0 -0 -0 -0 -0 -0 -0 -0 -0 -0 -0 -0 -0 -0 -0 -0 -0 -0 -0 -0 -0 -0 -0 -0 -0 -0 -0 -0 -0 -0 -0 -0 -0 -0 -0
Wind_Speed
6 6 10 11 12 10 8 8 5 3 4 3 4 5 6 9 8 8 5 8 8 8 8 8 9 10 10 11 11 12 12 13 13 13 13 13 14 14 14 15 16 17 17
10 10 10 12 10 13 10 10 7 2 2 2 4 3 6 8 8 8 6 5 8 5 6 7 8 8 9 10 10 11 11 11 12 12 12 12 12 13 13 14 14 16 16
11 11 12 12 15 15 12 12 5 3 1 2 3 3 3 5 9 8 8 4 5 4 4 5 5 6 6 8 9 10 10 10 10 10 10 10 10 11 11 12 13 14 14
13 12 14 17 17 15 13 10 5 3 2 2 4 2 3 4 6 8 6 6 5 1 1 1 3 4 5 7 7 8 8 9 9 8 8 9 9 9 10 11 11 12 13
13 11 13 17 16 15 11 9 7 5 3 2 3 4 3 4 3 2 3 4 3 1 4 2 1 3 2 8 6 7 8 8 7 8 8 8 7 8 9 10 11 11 12
14 11 11 11 11 12 11 10 10 7 4 2 2 4 2 3 2 1 2 3 3 4 4 3 6 6 3 7 7 7 7 6 6 6 6 6 6 8 9 10 10 10 12
15 13 9 8 10 12 13 12 13 10 7 4 3 1 1 2 2 3 4 7 7 9 13 10 7 9 9 8 6 5 5 5 5 5 5 5 7 8 9 9 9 10 13
14 14 11 9 15 12 9 13 13 13 8 4 5 2 6 6 6 7 6 6 7 10 11 13 12 11 12 10 6 5 6 6 6 6 6 7 8 9 9 10 10 13 13
13 12 11 11 13 17 14 12 10 10 7 6 5 5 5 8 7 6 9 6 6 7 13 13 12 12 14 14 11 9 9 9 9 9 10 10 10 10 10 11 13 15 15
15 22 18 22 27 22 18 9 8 8 7 6 5 8 14 15 15 15 6 6 8 7 10 14 15 13 15 17 12 12 11 11 12 12 13 13 14 13 13 14 14 13 14
19 18 27 19 22 22 20 14 10 9 9 9 6 6 11 13 15 15 13 8 6 8 9 10 13 16 16 16 15 15 15 14 15 17 18 17 17 17 16 16 18 19 19
21 20 21 22 18 14 18 11 10 10 11 11 16 5 8 13 19 18 18 16 11 11 12 11 12 14 16 17 19 19 18 18 17 19 18 18 19 18 20 20 20 22 24
25 27 33 34 28 21 20 15 13 13 12 17 18 17 10 10 11 14 16 18 19 21 19 18 18 19 19 21 23 25 24 24 25 23 21 21 21 20 24 24 25 26 28
30 31 31 36 29 29 30 25 20 16 16 16 15 16 16 16 16 16 16 20 25 24 23 23 22 22 24 25 28 28 28 27 26 24 22 23 19 22 26 28 28 29 31
28 24 26 27 33 28 26 20 17 16 15 15 16 17 18 18 18 20 21 24 26 30 29 27 28 24 27 31 31 27 26 23 24 21 19 23 22 23 24 26 28 30 32
27 23 23 23 25 28 25 20 18 18 17 18 18 19 20 20 21 23 25 27 28 30 32 30 30 29 30 24 21 18 16 15 16 18 19 20 22 22 23 25 27 30 33
25 25 24 26 24 21 21 18 18 18 18 18 18 20 21 21 23 26 28 29 30 29 34 35 31 29 22 18 19 17 15 17 20 18 17 18 20 22 22 25 28 30 32
22 24 25 24 23 24 22 20 20 19 20 20 20 21 22 21 22 23 24 27 30 31 33 34 32 27 23 21 23 22 21 19 18 17 17 18 20 21 23 25 29 31 32
19 20 22 22 21 20 21 23 23 22 22 22 22 23 23 23 23 24 25 28 27 29 30 31 34 29 27 25 25 24 21 22 20 19 20 23 21 19 22 27 29 30 31
20 21 21 23 23 21 20 22 22 22 23 23 24 24 24 24 25 25 26 26 26 28 27 30 32 31 30 28 25 25 25 24 25 20 20 20 19 21 23 25 28 31 31
20 20 20 22 22 21 23 24 23 23 23 25 25 26 26 26 25 26 28 26 26 26 26 28 29 29 29 29 27 28 27 25 24 24 24 23 22 23 26 27 29 30 31
21 21 22 23 22 23 25 25 23 22 23 24 25 27 29 30 28 28 27 26 26 27 29 28 29 31 30 29 27 26 23 27 26 25 27 31 28 29 27 29 32 34 32
21 23 24 24 25 24 24 24 24 25 25 25 26 27 28 28 28 28 28 28 31 32 32 31 32 33 31 25 21 22 26 24 27 29 31 34 31 33 32 33 34 33 33
24 24 24 25 25 25 23 24 24 24 25 27 28 28 27 26 25 25 27 28 30 30 29 26 25 25 23 22 25 21 23 25 28 30 32 40 36 37 35 34 35 39 38
25 25 26 26 25 25 26 24 23 23 23 26 28 29 27 27 25 22 24 24 24 23 23 21 19 19 19 21 22 23 26 29 34 34 32 39 38 40 39 39 37 40 40
27 26 26 27 27 27 28 24 21 22 22 22 25 26 24 22 21 21 21 20 21 22 20 20 19 22 23 22 23 24 26 31 33 37 33 37 40 42 46 37 35 37 39
Wind_Direction
210 177 173 188 209 210 213 212 215 151 129 88 25 85 360 84 76 72 82 90 77 75 65 59 59 60 54 47 40 37 33 29 26 28 28 27 27 29 29 27 27 23 17
225 189 175 196 199 213 218 231 244 191 146 63 73 68 43 78 81 84 95 89 91 71 66 62 60 48 49 46 43 32 10 22 25 31 33 31 33 26 23 21 19 14 10
199 177 175 180 214 219 222 236 213 229 251 72 83 59 36 50 98 101 102 96 95 90 76 64 48 49 45 52 28 358 12 29 24 30 32 32 24 19 18 18 17 12 10
183 173 171 214 219 218 222 234 213 220 214 106 102 80 76 75 71 114 112 115 112 325 71 20 77 62 360 347 4 7 15 18 24 30 29 23 17 15 12 11 11 11 6
218 204 209 221 223 216 215 221 229 227 224 165 120 121 106 104 103 38 117 143 143 287 287 178 258 315 6 323 354 353 357 7 12 10 14 22 20 10 3 1 359 359 359
219 210 217 219 212 212 227 224 234 247 238 187 131 139 127 127 139 185 288 297 255 264 269 286 284 290 286 308 324 332 339 353 4 8 9 11 7 358 349 347 347 348 348
213 223 224 203 233 231 232 236 244 253 267 250 295 251 293 302 239 238 275 288 284 290 282 288 291 297 298 298 304 313 323 324 331 337 339 341 340 334 334 336 337 335 332
202 226 233 202 232 242 225 235 247 261 269 253 281 259 299 297 275 276 267 256 269 284 282 290 285 294 298 298 289 271 279 295 290 295 301 307 317 318 319 319 320 321 323
184 194 184 199 204 239 242 243 242 257 253 266 237 297 299 302 291 277 211 246 244 260 284 288 292 290 293 296 293 278 265 277 279 282 278 281 286 298 302 306 312 313 313
188 168 166 168 170 172 247 224 223 245 253 244 252 266 289 304 315 315 276 228 276 259 272 288 293 288 295 298 290 285 269 259 269 270 275 279 279 281 286 292 295 298 297
166 176 175 172 171 175 179 192 204 219 251 271 253 265 199 288 301 305 314 305 268 271 268 274 287 296 299 297 294 291 272 269 267 270 276 276 283 283 281 284 290 296 297
174 177 180 178 182 190 191 223 219 220 205 202 189 227 281 292 293 296 297 299 291 289 280 272 278 284 285 292 300 297 290 284 269 268 264 269 276 279 290 295 296 300 302
178 181 186 189 188 188 190 210 232 208 209 201 201 206 263 267 284 295 300 300 299 301 297 291 289 292 288 289 289 289 288 289 292 287 276 277 282 286 292 294 297 300 302
186 187 189 195 191 191 194 194 200 209 213 217 222 229 275 276 280 280 284 293 298 294 296 296 296 291 294 292 289 285 284 285 288 288 280 282 284 292 293 296 298 301 304
188 187 190 191 196 197 199 206 218 227 234 244 245 259 264 271 275 278 282 288 292 294 293 296 299 298 297 299 296 294 291 288 286 283 280 282 287 292 295 299 301 304 306
192 194 195 197 200 203 205 212 219 225 239 245 256 262 266 267 274 278 281 285 287 288 290 298 302 306 310 307 307 303 289 278 285 281 285 285 292 294 298 299 302 304 306
188 193 195 201 205 208 210 222 228 233 241 246 247 262 264 268 274 280 283 284 283 284 287 294 299 307 303 304 307 303 294 291 293 286 286 286 286 294 298 300 303 305 306
190 194 199 204 208 215 222 229 232 239 244 248 251 259 261 270 271 271 278 283 283 284 286 290 298 301 299 300 302 301 296 295 295 290 285 289 292 295 298 302 306 306 307
202 204 207 211 217 222 226 228 233 237 241 244 247 252 257 267 268 275 280 282 281 284 286 286 295 299 296 300 305 304 297 295 296 294 295 298 297 295 301 306 307 308 308
213 213 213 216 221 227 227 228 233 239 246 251 256 259 262 265 269 277 281 283 283 285 283 285 292 291 294 298 299 299 295 295 290 294 299 302 297 299 303 306 308 309 309
226 225 228 225 226 230 232 236 246 252 258 263 266 269 269 269 272 278 283 282 283 282 285 287 287 290 289 294 290 297 295 297 294 291 299 305 308 308 308 308 310 311 310
233 238 236 236 236 237 236 238 246 259 263 266 269 275 278 277 276 278 276 276 278 278 283 282 280 286 286 292 296 294 296 295 299 296 304 304 308 308 311 313 313 312 311
249 243 245 249 245 248 249 249 250 259 268 274 278 280 282 283 283 284 288 290 292 292 289 287 290 294 295 290 301 296 302 300 301 302 311 306 313 311 311 311 313 314 314
252 253 254 252 257 258 258 255 258 264 270 275 283 286 284 284 285 285 288 292 297 298 296 295 297 301 304 301 305 304 305 305 307 307 311 305 309 309 310 310 311 312 312
260 259 264 264 259 263 271 263 264 272 278 286 291 294 294 293 292 290 290 294 301 306 316 315 315 314 315 312 311 307 305 305 305 307 311 308 310 310 311 310 312 314 315
265 268 272 277 277 275 279 273 268 273 278 287 296 300 301 299 301 301 297 295 292 301 303 312 316 320 321 317 318 314 308 304 308 309 315 312 313 315 312 313 315 317 317